Reflectivity
-20 -20 -20 -20 -20 -20 -20 -20 -20 -20 -20 -20 6 -10 -20 -20 -20 -18 -20 -20 -20 -2 -2 -7 4 -16 -20 -20 -11 -20 -20 -20 -20 -20 -20 -20 -20 -20 -20 -20 -20 -20 -20 -20 -20 -20 -20 -20 -20
-20 -20 -20 -20 -20 -20 -20 -20 -20 -20 -20 -20 -20 -20 -20 -20 -20 -20 -20 -20 -20 -8 -7 -20 -20 -20 -20 -20 -20 -20 -20 -20 -20 -20 -20 -20 -20 -20 -20 -20 -20 -20 -20 -20 -20 -20 -20 -20 -20
-20 -20 -20 -20 -20 -20 -20 -20 -20 -20 -20 -20 -9 -20 -20 -1 -20 14 -18 -20 22 -20 -20 -20 -20 -20 -20 -20 -20 -20 -20 -20 -20 -20 -20 -20 -20 -20 -20 -20 -20 -20 -20 -20 -20 -20 -20 -20 -20
-20 -20 -20 -20 -20 -20 -20 -20 -20 -20 -20 -20 -20 -20 -20 -20 -20 -20 -20 -20 -20 -20 -20 -20 -16 -18 -9 -20 -6 -20 -20 -20 -20 -20 -20 -20 -20 -20 -20 -20 -20 -20 -20 -20 -20 -20 -20 -20 -20
-20 -20 -20 -20 -20 -20 -13 -15 -20 -20 -20 -20 -20 -20 -20 -20 -20 -20 32 10 35 38 20 -3 -4 -11 -1 1 16 -15 -20 -20 -20 -20 -20 -20 -20 -20 -20 -20 -20 -20 -20 -20 -20 -20 -20 -20 -20
-20 -20 -20 -20 -20 -15 -17 -20 7 28 -20 -20 -20 -20 -20 -20 -20 -20 31 31 36 43 33 23 31 32 27 26 9 -20 -20 -20 -20 -20 -20 -20 -20 -20 -20 -18 -5 -12 -20 -20 -20 -20 -20 -20 -20
-3 -20 -20 -20 -20 18 6 -20 -20 -9 -6 -20 -20 -20 -20 -20 -20 -20 -3 35 42 28 33 32 32 37 27 12 -18 -15 -14 -19 -19 -4 -2 -11 -20 -10 7 -3 -19 -20 -20 -20 -20 -20 -20 -20 -20
-20 -20 -20 -20 -20 -12 -20 15 12 8 2 -20 -20 -20 -20 -20 -20 -20 -15 26 49 45 39 39 40 29 19 12 9 -9 -20 -20 -20 -20 -20 -19 -1 -1 -2 -14 -20 -20 -20 -20 -20 -20 -20 -20 -20
-16 -20 -20 -20 -20 -15 -9 3 6 19 -1 -20 -20 -20 29 26 -20 -20 16 16 31 36 35 37 31 15 8 3 -3 -14 -20 -15 -3 4 7 8 -6 -15 -20 -20 -20 -20 -20 -20 -20 -20 -20 -20 -20
-20 -20 -20 -20 -17 -2 -20 -20 -2 8 2 2 -20 -20 9 32 28 -14 18 19 20 37 32 33 22 10 -1 -11 -19 -14 0 -9 -14 -17 -20 -20 -20 -20 -20 -20 -20 -20 -20 -20 -20 -20 -20 -20 -20
-20 -20 -20 -20 -19 -20 -20 -20 -20 9 -2 -12 11 9 -20 -18 -18 -19 -7 29 35 37 31 19 11 -2 -18 -19 -20 -19 -11 -3 -5 -4 -20 -20 -20 -20 -20 -20 -20 -20 -20 -20 -20 -20 -20 -20 -20
-20 -20 -20 -20 -20 -20 -20 -20 -13 -10 12 -7 -20 -20 13 -19 -19 -15 17 23 33 26 19 7 2 -8 -4 -6 -6 -13 -18 -20 -20 -20 -20 -20 -20 -20 -20 -20 -20 -20 -20 -20 -20 -20 -20 -20 -20
-20 -20 7 -8 -20 5 -20 7 -20 -20 -20 -15 -7 -16 -6 -3 10 4 11 14 10 15 19 9 5 3 -6 -19 -20 -20 -18 -20 -20 -20 -20 -20 -20 -20 -20 -20 -20 -20 -20 -20 -20 -20 -20 -20 -20
-16 6 -0 -8 -20 -20 -20 -20 -20 -20 -19 14 15 9 -5 17 -20 -15 4 10 9 1 3 7 10 -2 -14 -20 -20 -20 -19 -20 -17 -20 -20 -20 -20 -20 -20 -20 -20 -20 -20 -20 -20 -20 -20 -20 -20
11 14 -9 -18 -20 -17 -17 1 -20 -18 7 15 20 4 -19 22 -6 -6 -20 -20 -20 -20 -20 -20 -20 -20 -20 -20 -20 -20 -20 -20 -19 -20 -20 -20 -20 -20 -20 -20 -20 -20 -20 -20 -20 -20 -20 -20 -20
-20 -19 -3 -20 14 -3 -9 -8 9 -20 -11 -8 -15 -20 -20 -11 -16 -14 10 -20 -20 -20 -20 -20 -20 -20 -20 -20 -20 -20 -20 -20 -20 -20 -20 -20 -20 -20 -20 -20 -20 -20 -20 -20 -20 -20 -20 -20 -20
-20 -20 -11 -17 -17 -20 -13 -16 -20 13 -20 -20 -20 -20 -20 -20 -20 -20 -20 -20 -20 -20 -20 -20 -20 -20 -20 -20 -20 -20 -20 -20 -20 -20 -20 -20 -20 -20 -20 -20 -20 -20 -20 -20 -20 -20 -20 -20 -20
-20 -18 -14 -20 -20 -20 -6 -20 -20 -20 -20 -20 -20 -20 -20 -20 -20 -20 -20 -20 -20 -20 -20 -20 -20 -20 -20 -20 -20 -20 -20 -20 -20 -20 -20 -20 -20 -20 -20 -20 -20 -20 -20 -20 -20 -20 -20 -20 -20
-9 16 -20 -20 1 -20 -20 -20 -20 -20 -20 -20 -20 -20 -20 -20 -20 -20 -20 -20 -20 -20 -20 -20 -20 -20 -20 -20 -6 -5 -20 -20 -20 -20 -20 -20 -20 -20 -20 -20 -20 -20 -20 -20 -20 -20 -20 -20 -20
7 -20 -20 -20 -20 -20 -20 -20 -20 -20 -20 -20 -20 -20 -20 -20 -20 -20 -20 -20 -20 -20 -20 -20 -20 -20 -20 -20 -20 -20 -20 -20 -20 -20 -20 -20 -20 -20 -20 -20 -20 -20 -20 -20 -20 -20 -20 -20 -20
-14 3 -9 -20 -20 -20 -20 -20 -20 -20 -20 -20 -20 -20 -20 -20 -20 -20 -20 -20 -20 -20 -20 3 -20 -20 -20 -20 -20 -20 -20 -20 -20 -20 -20 -20 -20 -20 -20 -20 -20 -20 -20 -20 -20 -20 -20 -20 -20
-20 -20 -11 -15 -20 -20 -20 -20 -20 -20 -20 -20 -20 -20 -20 -20 -20 -20 -20 -20 -20 -20 -20 -20 -20 -20 -20 -20 -20 -20 -20 -20 -20 -20 -20 -20 -20 -20 -20 -20 -20 -20 -20 -20 -20 -20 -20 -20 -20
-20 -20 -18 -20 -7 -20 -20 -20 -20 6 -19 -20 -20 -20 -20 -20 -20 -20 -20 -20 -20 -20 -20 -20 26 -1 -20 -20 -20 -20 -20 -20 -20 -20 -20 -20 -20 -20 -20 -20 -20 -20 -20 -20 -20 -20 -20 -20 -20
-20 -20 -20 -20 -20 -20 -20 4 -20 -13 -2 2 17 -20 -20 -20 -20 -20 -20 -20 -20 -20 -20 -5 -20 -20 -20 -3 -20 -20 -20 -20 -20 -20 -20 -20 -20 -20 -20 -20 -20 -20 -20 -20 -20 -20 -20 -20 -20
-20 -20 -20 -20 -20 -5 -18 -14 -20 -20 -20 -20 -20 -18 -20 -20 -20 -20 -20 -20 -20 -9 -20 -20 -20 -20 -20 -20 -20 -20 -20 -20 -20 -20 -20 -20 -20 -20 -20 -10 -20 -20 -20 -20 -20 -20 -20 -20 -20
-20 -20 -20 -20 -20 -13 -18 -20 -20 -20 -20 -20 -20 -20 -20 -20 -20 -20 -20 -20 -20 -20 -20 -20 -16 -20 -20 -20 -20 -20 -20 -20 -20 -20 -20 -20 -20 -20 -20 -17 -7 -20 -6 -20 -20 -20 -20 -20 -20
-20 -20 -20 -20 -20 -19 1 -20 -20 -20 -20 -20 -20 -20 -20 -20 -20 -20 -20 -20 -20 -20 -20 -20 -20 -20 -20 -20 -20 -20 -20 -20 -20 -20 -19 -20 22 -9 -10 -20 -20 2 -20 -20 -20 -20 -20 -20 -20
-20 -18 -20 -20 -20 -20 -20 -20 -20 -20 -0 -19 -20 -20 -20 -20 -20 -20 -20 -20 -20 -20 -6 -20 -12 -20 -20 -20 -20 -20 -20 -20 -20 -17 13 16 -14 27 8 -6 2 2 -20 -20 -20 -20 -20 -20 -20
-20 -20 -20 -20 -20 -20 -20 -20 -20 -20 -20 -20 -20 -20 -20 -20 -20 -20 -20 -20 -20 -20 -20 -20 -20 -20 -20 -20 -20 -20 -20 -17 -19 3 -13 -17 15 20 5 -4 6 -20 -20 -20 -20 -20 -20 -20 -20
-20 -20 -20 -20 -20 -20 -20 -20 -20 -20 -20 -20 -20 -20 -20 -20 -20 -20 -20 -20 -20 -20 -20 -20 -20 -20 -20 -20 -20 -20 -20 -20 -9 -18 -16 4 0 12 -19 -20 -20 -20 -20 -20 -20 -20 -20 -20 -20
Wind_Speed
4 4 2 3 3 3 6 6 1 5 5 8 13 15 14 6 5 4 9 14 18 16 17 18 20 20 20 18 18 19 21 21 22 20 18 20 18 18 18 18 18 19 20 21 19 19 19 18 17
2 3 1 3 3 1 7 9 8 6 6 1 7 5 9 7 7 11 12 17 16 15 15 17 21 19 19 18 19 19 21 21 20 20 18 19 19 19 19 18 18 18 19 19 19 19 18 17 17
2 3 2 5 4 8 5 1 7 6 6 3 5 7 4 4 3 4 15 16 18 14 14 17 21 21 19 19 20 20 21 19 19 19 20 20 21 20 20 17 17 17 18 18 18 18 18 18 18
1 5 4 1 10 16 11 5 12 11 8 6 10 9 5 6 1 7 13 19 18 18 16 17 20 21 20 20 21 21 20 17 18 18 19 20 20 20 19 16 15 16 17 16 16 16 15 14 15
0 2 3 3 12 4 8 12 6 6 3 8 7 5 5 5 6 12 12 10 11 15 16 16 19 21 20 21 20 21 18 18 18 17 18 18 19 19 17 15 14 14 15 14 13 12 12 12 12
3 3 2 6 13 9 8 5 5 6 3 5 7 9 4 4 10 11 9 10 15 14 12 15 20 19 18 20 19 19 19 18 17 18 16 17 17 15 15 13 13 12 12 11 10 9 9 10 13
6 2 7 11 14 8 6 9 4 1 3 6 8 6 5 5 7 12 14 10 13 15 16 15 13 14 14 15 18 19 18 16 17 17 15 14 13 13 12 12 11 10 9 8 7 7 7 9 11
4 4 7 10 14 4 2 1 8 1 3 1 3 4 6 6 12 15 14 19 13 14 15 8 8 8 9 9 17 18 17 15 16 15 13 13 13 13 12 10 9 8 8 8 5 6 8 7 6
2 2 9 15 1 8 9 7 8 15 7 7 7 7 13 12 15 17 15 14 12 12 13 9 9 7 7 7 11 14 15 14 14 11 12 9 4 7 8 10 10 9 7 5 3 6 8 7 9
3 4 13 5 5 7 6 9 12 5 5 5 7 15 20 8 11 18 14 14 12 5 7 9 8 9 8 8 7 7 9 6 6 6 6 4 6 5 7 8 11 9 7 6 2 5 7 7 5
6 10 9 1 5 7 8 6 3 8 4 6 10 8 12 12 9 16 18 20 15 12 8 9 11 10 9 8 6 4 4 3 4 6 6 6 3 4 4 3 2 3 3 3 5 5 4 6 5
3 10 13 7 6 6 8 6 3 5 3 3 20 24 17 14 11 13 20 18 17 17 12 13 13 10 10 7 5 5 3 3 2 4 3 3 3 3 4 3 3 2 4 5 4 3 5 6 6
8 9 9 7 8 8 11 3 6 4 11 16 14 17 18 15 12 15 20 18 17 15 15 14 11 12 9 6 5 6 4 4 4 5 6 5 5 4 4 4 5 4 3 4 5 5 5 5 6
8 6 12 9 17 6 9 5 6 7 9 11 13 11 10 16 19 18 20 20 18 13 11 7 8 6 7 6 8 6 4 5 5 5 4 6 4 5 5 5 5 4 3 4 5 4 5 5 5
7 2 6 9 10 3 10 8 2 6 7 13 13 11 12 15 18 23 19 17 17 13 11 8 8 7 9 8 8 5 5 5 6 5 5 6 5 6 6 4 4 4 3 6 5 5 5 5 5
4 5 3 5 11 8 11 7 7 10 10 14 13 11 8 14 18 17 18 17 17 16 14 8 7 10 9 9 5 5 5 4 4 5 4 5 7 6 6 5 4 3 2 4 5 4 4 4 4
4 2 1 4 15 9 5 5 9 6 16 14 12 9 9 9 15 15 17 18 18 17 15 9 11 10 8 9 7 6 6 4 3 5 4 6 6 5 6 5 3 4 5 5 3 4 3 2 3
2 4 7 8 10 6 7 7 5 8 9 11 12 9 10 10 13 14 17 16 15 13 15 14 10 9 7 7 6 4 3 3 4 4 5 7 5 6 5 5 4 5 4 3 3 3 3 2 1
1 6 11 5 8 8 11 6 10 10 7 9 8 9 9 13 10 13 11 16 16 13 15 16 15 8 7 4 5 4 4 4 4 4 7 6 5 5 5 4 4 4 5 3 2 2 3 2 3
7 14 8 8 4 7 9 9 10 11 8 13 12 11 11 8 8 8 9 10 18 17 14 15 16 13 9 7 4 4 5 3 4 4 4 7 6 5 6 6 5 5 4 5 3 3 1 1 1
14 5 14 6 3 2 5 4 5 8 6 7 10 14 16 16 12 8 7 12 15 17 15 14 14 14 10 8 4 4 3 3 2 3 4 4 6 6 7 6 5 4 4 2 0 1 2 2 2
8 4 5 9 2 3 4 2 2 5 10 8 10 13 15 14 14 13 9 10 13 9 13 15 14 12 10 8 7 10 5 6 4 4 4 4 7 6 5 6 6 5 3 1 1 1 2 3 2
7 6 5 5 4 5 2 5 8 3 3 4 7 9 12 15 17 15 12 10 14 13 12 11 11 12 8 8 11 8 5 3 4 5 7 5 5 6 3 6 7 6 4 3 4 4 4 1 1
8 3 4 6 4 3 6 6 5 9 17 6 11 6 9 9 17 15 10 13 11 11 11 11 10 6 7 8 9 10 10 8 8 7 6 3 3 5 6 6 6 5 4 3 3 3 3 3 3
4 4 3 7 7 6 9 3 14 14 8 13 18 14 7 9 13 14 15 12 13 11 10 8 9 7 8 8 8 8 8 8 9 7 5 6 4 4 5 5 5 3 4 6 5 4 4 4 3
4 5 5 5 3 4 11 5 5 13 7 10 10 4 5 9 10 15 15 12 12 9 8 8 11 11 8 8 8 8 8 5 5 6 5 5 4 4 6 5 5 5 5 3 4 3 3 4 3
1 3 5 7 4 5 6 4 5 8 5 6 5 5 7 8 8 9 9 10 11 11 8 9 10 9 9 8 7 7 7 8 6 6 5 4 4 4 6 6 5 4 3 3 5 4 4 3 1
4 3 4 4 4 5 3 3 4 4 5 9 10 10 8 8 8 8 9 9 7 8 7 7 7 9 8 9 7 7 7 7 6 5 7 4 6 3 5 5 4 2 3 4 4 3 4 5 3
1 2 3 4 5 5 0 5 1 6 8 9 9 12 12 10 10 9 8 11 10 9 8 7 6 8 8 10 7 8 7 5 6 4 5 5 5 4 4 2 1 2 3 1 2 2 4 4 3
5 5 2 6 4 2 6 7 2 5 7 8 8 11 11 13 12 11 11 12 13 12 11 9 8 10 10 9 9 8 7 6 5 4 5 6 6 5 4 2 1 3 2 2 2 2 2 2 3
Wind_Direction
223 219 111 10 46 93 253 253 161 50 22 324 51 76 96 52 72 113 133 116 127 129 130 124 120 121 121 118 112 107 104 103 100 96 95 92 89 89 88 81 76 72 69 66 62 59 51 41 34
259 245 335 275 141 54 273 193 109 122 160 235 40 21 50 61 51 102 109 134 130 129 125 123 122 121 118 117 114 111 106 104 105 102 97 94 92 90 85 79 75 72 71 66 62 56 48 37 27
318 222 111 153 204 222 231 17 130 127 120 70 112 55 54 69 33 103 132 136 134 128 127 126 123 120 119 116 113 109 105 105 107 106 101 96 93 90 83 75 74 74 72 68 60 51 42 30 24
281 337 333 112 260 257 230 162 127 127 120 95 118 88 71 358 319 127 132 143 143 134 131 127 123 124 120 117 113 108 104 109 102 104 99 98 95 92 87 83 80 78 73 67 60 53 41 29 26
141 277 215 264 254 337 51 52 66 86 101 145 123 104 67 6 47 102 107 115 130 118 130 127 125 114 117 111 108 107 110 104 103 99 100 100 99 96 92 85 80 78 76 70 63 53 41 22 24
309 122 3 251 274 289 56 72 69 358 351 20 97 110 133 97 55 63 85 110 128 128 123 116 105 104 101 110 114 113 108 109 108 106 106 104 103 103 97 93 88 85 82 77 69 57 46 30 16
207 84 255 275 280 63 8 350 72 286 348 34 153 89 113 115 80 86 80 84 88 99 98 97 98 115 112 118 120 110 110 112 114 113 112 114 115 111 104 102 105 105 94 89 82 69 49 38 32
197 126 290 274 282 90 309 60 348 92 260 180 85 117 168 130 99 92 89 101 88 91 93 100 116 118 120 126 114 116 118 126 125 126 135 137 130 122 119 114 114 116 119 106 88 69 42 27 30
271 10 271 267 300 177 189 135 35 308 305 52 27 89 82 124 113 98 95 98 93 117 136 154 140 135 112 113 120 117 131 134 131 135 142 137 143 137 133 141 142 145 131 115 95 59 46 61 34
140 151 247 304 161 149 187 122 166 168 295 68 74 104 131 122 118 110 113 107 105 129 153 173 154 138 141 133 127 137 144 149 140 151 162 170 170 158 153 155 156 163 149 160 147 43 56 49 36
256 235 261 346 149 106 153 143 220 142 280 123 116 132 125 132 119 123 124 134 154 172 197 180 153 162 139 147 162 157 151 152 148 168 180 193 160 143 133 119 173 85 162 6 44 52 33 35 41
244 253 247 192 144 155 137 134 176 156 78 78 147 146 149 155 156 146 136 159 164 180 189 175 160 163 162 167 157 156 158 161 139 170 135 105 114 115 133 159 136 86 91 110 80 60 38 34 38
242 253 108 192 133 72 81 111 160 85 47 97 115 142 161 155 146 147 148 163 173 182 160 154 156 156 159 138 146 129 147 114 122 84 72 65 79 86 113 109 96 92 99 86 65 44 39 26 27
229 216 122 110 108 109 94 27 27 27 89 110 143 179 169 151 151 148 161 165 164 146 141 131 126 146 121 120 111 112 111 102 82 70 66 70 86 82 82 80 78 75 68 61 76 67 52 31 27
311 57 149 134 114 78 78 7 255 280 137 145 169 182 175 159 155 158 158 147 140 138 145 146 148 116 117 113 112 125 105 99 101 102 72 80 85 98 103 105 96 93 85 88 68 52 43 31 13
358 6 114 246 116 176 92 273 263 205 175 171 169 181 174 146 157 153 144 143 143 145 150 156 135 122 117 120 89 83 93 86 88 91 90 90 103 123 116 103 93 120 88 87 77 64 42 30 14
345 228 208 236 145 154 113 229 267 200 183 169 171 173 138 137 133 143 144 149 148 149 150 143 129 129 117 100 100 93 85 84 89 101 130 136 142 147 109 123 130 76 83 85 89 65 100 50 360
285 26 287 215 166 142 144 200 254 209 156 155 159 159 151 138 146 153 146 149 144 144 148 130 127 121 99 106 97 81 110 154 160 158 162 162 144 148 135 126 109 79 92 79 68 88 39 89 57
44 284 266 267 236 135 179 181 209 221 166 158 163 149 157 155 167 162 156 144 147 145 150 143 140 126 134 123 144 177 174 163 177 173 157 148 150 115 104 85 86 81 94 94 76 115 69 347 13
300 267 277 308 132 124 204 208 185 199 195 172 164 161 163 134 136 136 138 135 154 159 145 145 152 161 172 171 190 159 150 180 169 156 143 135 134 120 106 103 94 82 74 59 61 76 2 333 17
220 281 216 233 297 335 144 299 174 215 179 172 174 166 166 155 158 155 154 140 153 163 149 154 156 165 180 192 154 122 127 94 107 138 113 151 135 124 126 128 127 113 107 91 74 274 132 207 292
275 198 305 299 311 213 95 269 96 230 199 197 178 176 173 172 161 163 164 140 160 150 154 156 159 169 190 195 157 154 162 166 180 154 139 149 135 139 141 154 154 143 124 111 289 182 223 160 237
243 240 234 277 284 101 137 96 273 191 306 241 225 192 176 176 163 168 169 156 149 140 156 155 176 185 183 186 163 163 157 160 145 129 138 153 165 166 120 74 80 72 67 39 34 12 360 54 135
273 299 331 27 44 27 240 135 264 211 216 157 249 267 182 174 168 163 151 130 139 143 152 170 172 185 181 163 165 157 147 142 130 140 157 151 105 95 91 90 88 86 68 33 358 347 319 269 234
332 19 1 5 14 245 316 139 230 226 221 193 214 227 190 133 135 142 144 151 160 171 176 164 167 183 159 136 124 123 139 141 143 144 134 133 134 118 110 90 73 57 37 21 7 351 331 302 258
264 133 155 171 207 250 323 240 237 221 180 212 212 150 159 136 145 156 166 164 160 162 180 178 173 162 143 133 130 122 125 118 112 126 126 117 123 126 108 102 75 51 35 12 341 320 308 329 359
150 331 170 106 6 59 243 330 7 87 55 146 147 197 156 140 143 141 134 145 150 148 161 152 148 149 143 136 121 117 109 109 116 105 106 106 105 106 87 83 69 40 4 321 322 3 9 23 357
166 266 30 357 142 238 312 21 171 127 134 168 167 163 158 153 149 147 141 141 137 141 145 137 149 153 145 126 128 125 122 115 103 110 107 101 102 71 78 67 73 28 321 340 82 30 350 359 351
187 249 238 146 136 159 73 284 172 150 156 164 188 174 170 167 167 166 159 159 157 152 154 162 151 140 130 132 126 119 116 106 120 110 110 112 128 124 97 81 57 320 302 80 78 28 11 12 17
176 193 190 121 263 185 141 272 216 138 174 168 172 191 177 174 171 170 167 164 166 166 165 165 149 140 144 135 127 123 127 130 143 160 146 161 160 142 138 159 357 290 192 158 54 80 80 36 353